Pecos, TX

2:58 AM CDT on May 25, 2018 (GMT -0500)
Pecos Municipal

Weather History for KPEQ - January, 2014

Change the Weather History Date:

Wednesday, January 1, 2014

  Actual Average Record
Temperature  
Mean Temperature 48 °F -  
Max Temperature 70 °F 58 °F 77 °F (1914)
Min Temperature 26 °F 28 °F 14 °F (1958)
Degree Days  
Heating Degree Days 17    
Moisture  
Dew Point 26 °F    
Average Humidity 55    
Maximum Humidity 89    
Minimum Humidity 18    
Precipitation  
Precipitation 0.00 in - - ()
Sea Level Pressure  
Sea Level Pressure 30.07 in    
Wind  
Wind Speed 6 mph (SW)    
Max Wind Speed 21 mph    
Max Gust Speed 28 mph    
Visibility 10 miles    
Events      
Averages and records for this station are not official NWS values.
T = Trace of Precipitation, MM = Missing Value Source: NWS Daily Summary

Daily Weather History Graph

Daily Weather History Graph

Search for Another Location

Airport or City:

Astronomy

Jan. 01, 2014 Rise Set
Actual Time 7:53 AM CST 6:02 PM CST
Civil Twilight 7:26 AM CST 6:29 PM CST
Nautical Twilight 6:56 AM CST 6:59 PM CST
Astronomical Twilight 6:26 AM CST 7:28 PM CST
Moon 7:49 AM CST (1/1) 6:45 PM CST (1/1)
Length of Visible Light 11h 02m
Length of Day
10h 09m
New Moon, 0% of the Moon is Illuminated
Jan 1
New Moon
Jan 7
First Quarter
Jan 15
Full
Jan 23
Last Quarter
Jan 30
New

Hourly Weather History & Observations

Time (CST) Temp. Windchill Dew Point Humidity Pressure Visibility Wind Dir Wind Speed Gust Speed Precip Events Conditions
12:15 AM 32.0 °F 28.7 °F 26.1 °F 79% 30.11 in 10.0 mi South 3.5 mph - N/A   Clear
12:35 AM 31.1 °F 27.7 °F 25.7 °F 80% 30.11 in 10.0 mi SSE 3.5 mph - N/A   Clear
12:55 AM 30.4 °F 23.6 °F 25.2 °F 81% 30.10 in 10.0 mi South 6.9 mph - N/A   Clear
1:15 AM 29.3 °F 25.6 °F 24.8 °F 83% 30.09 in 10.0 mi South 3.5 mph - N/A   Clear
1:35 AM 29.1 °F 24.1 °F 24.1 °F 81% 30.09 in 10.0 mi SSE 4.6 mph - N/A   Clear
1:55 AM 27.9 °F 22.6 °F 24.3 °F 86% 30.08 in 10.0 mi South 4.6 mph - N/A   Clear
2:15 AM 28.9 °F 25.2 °F 25.0 °F 85% 30.07 in 10.0 mi SSW 3.5 mph - N/A   Clear
2:35 AM 29.3 °F 25.6 °F 24.8 °F 83% 30.06 in 10.0 mi SSE 3.5 mph - N/A   Clear
2:55 AM 27.5 °F 21.1 °F 23.9 °F 86% 30.07 in 10.0 mi SE 5.8 mph - N/A   Clear
3:15 AM 27.5 °F 23.6 °F 24.1 °F 87% 30.07 in 10.0 mi SE 3.5 mph - N/A   Clear
3:35 AM 27.7 °F 22.4 °F 24.4 °F 88% 30.06 in 10.0 mi SE 4.6 mph - N/A   Clear
3:55 AM 27.9 °F 21.5 °F 24.1 °F 86% 30.06 in 10.0 mi SE 5.8 mph - N/A   Clear
4:15 AM 28.0 °F 21.7 °F 24.1 °F 85% 30.06 in 10.0 mi SE 5.8 mph - N/A   Clear
4:35 AM 27.3 °F 20.9 °F 23.7 °F 86% 30.05 in 10.0 mi SSE 5.8 mph - N/A   Clear
4:55 AM 28.0 °F - 24.1 °F 85% 30.05 in 10.0 mi Calm Calm - N/A   Clear
5:15 AM 28.2 °F 24.4 °F 23.9 °F 84% 30.05 in 10.0 mi SE 3.5 mph - N/A   Clear
5:35 AM 27.0 °F 21.6 °F 23.0 °F 85% 30.05 in 10.0 mi South 4.6 mph - N/A   Clear
5:55 AM 27.0 °F - 23.4 °F 86% 30.05 in 10.0 mi Calm Calm - N/A   Clear
6:15 AM 27.9 °F - 23.9 °F 85% 30.05 in 10.0 mi Calm Calm - N/A   Clear
6:35 AM 28.0 °F - 23.9 °F 84% 30.05 in 10.0 mi Calm Calm - N/A   Clear
6:55 AM 27.5 °F 23.6 °F 23.7 °F 86% 30.05 in 10.0 mi NE 3.5 mph - N/A   Clear
7:15 AM 27.9 °F 24.0 °F 23.9 °F 85% 30.05 in 10.0 mi East 3.5 mph - N/A   Clear
7:35 AM 26.6 °F - 23.0 °F 86% 30.06 in 10.0 mi Calm Calm - N/A   Clear
7:55 AM 26.4 °F - 23.5 °F 89% 30.06 in 10.0 mi Calm Calm - N/A   Clear
8:15 AM 27.3 °F - 24.3 °F 88% 30.07 in 10.0 mi Calm Calm - N/A   Clear
8:35 AM 29.5 °F 25.9 °F 26.6 °F 89% 30.07 in 10.0 mi East 3.5 mph - N/A   Clear
8:55 AM 32.4 °F 27.9 °F 29.3 °F 88% 30.06 in 10.0 mi ESE 4.6 mph - N/A   Clear
9:15 AM 34.9 °F 30.8 °F 30.6 °F 84% 30.07 in 10.0 mi SE 4.6 mph - N/A   Clear
9:35 AM 36.7 °F 34.1 °F 30.7 °F 79% 30.08 in 10.0 mi NE 3.5 mph - N/A   Clear
9:55 AM 40.1 °F 38.0 °F 32.0 °F 73% 30.07 in 10.0 mi SE 3.5 mph - N/A   Clear
10:15 AM 43.9 °F - 31.8 °F 63% 30.07 in 10.0 mi Calm Calm - N/A   Clear
10:35 AM 48.6 °F - 32.9 °F 55% 30.07 in 10.0 mi Calm Calm - N/A   Clear
10:55 AM 52.5 °F - 32.9 °F 47% 30.07 in 10.0 mi South 4.6 mph - N/A   Clear
11:15 AM 54.5 °F - 32.7 °F 44% 30.07 in 10.0 mi Calm Calm - N/A   Clear
11:35 AM 59.5 °F - 32.2 °F 36% 30.07 in 10.0 mi WSW 19.6 mph 25.3 mph N/A   Clear
11:55 AM 63.9 °F - 30.0 °F 28% 30.06 in 10.0 mi WSW 17.3 mph 26.5 mph N/A   Clear
12:15 PM 64.8 °F - 30.4 °F 28% 30.06 in 10.0 mi WSW 18.4 mph 21.9 mph N/A   Clear
12:35 PM 66.2 °F - 28.0 °F 24% 30.04 in 10.0 mi West 19.6 mph 25.3 mph N/A   Clear
12:55 PM 66.6 °F - 27.1 °F 23% 30.03 in 10.0 mi West 20.7 mph 27.6 mph N/A   Clear
1:15 PM 67.8 °F - 26.4 °F 21% 30.02 in 10.0 mi West 17.3 mph 25.3 mph N/A   Clear
1:35 PM 68.4 °F - 25.9 °F 20% 30.00 in 10.0 mi West 19.6 mph 25.3 mph N/A   Clear
1:55 PM 69.3 °F - 25.5 °F 19% 29.99 in 10.0 mi West 19.6 mph 26.5 mph N/A   Clear
2:15 PM 69.1 °F - 25.7 °F 20% 29.98 in 10.0 mi WSW 18.4 mph 26.5 mph N/A   Clear
2:35 PM 69.6 °F - 25.2 °F 19% 29.98 in 10.0 mi West 19.6 mph - N/A   Clear
2:55 PM 70.2 °F - 25.3 °F 19% 29.98 in 10.0 mi West 17.3 mph 24.2 mph N/A   Clear
3:15 PM 70.2 °F - 25.3 °F 19% 29.98 in 10.0 mi West 18.4 mph 23.0 mph N/A   Clear
3:35 PM 70.2 °F - 24.6 °F 18% 29.98 in 10.0 mi West 12.7 mph - N/A   Clear
3:55 PM 70.2 °F - 25.0 °F 18% 29.99 in 10.0 mi West 17.3 mph - N/A   Clear
4:15 PM 69.4 °F - 25.2 °F 19% 29.99 in 10.0 mi West 16.1 mph - N/A   Clear
4:35 PM 68.9 °F - 25.2 °F 19% 29.99 in 10.0 mi West 12.7 mph - N/A   Clear
4:55 PM 68.4 °F - 25.5 °F 20% 30.00 in 10.0 mi WSW 10.4 mph - N/A   Clear
5:15 PM 67.5 °F - 26.1 °F 21% 30.00 in 10.0 mi WSW 9.2 mph - N/A   Clear
5:35 PM 65.5 °F - 26.4 °F 23% 30.01 in 10.0 mi West 8.1 mph - N/A   Clear
5:55 PM 61.2 °F - 26.2 °F 26% 30.02 in 10.0 mi West 10.4 mph - N/A   Clear
6:15 PM 57.4 °F - 26.1 °F 30% 30.03 in 10.0 mi West 9.2 mph - N/A   Clear
6:35 PM 54.5 °F - 25.9 °F 33% 30.04 in 10.0 mi West 10.4 mph - N/A   Clear
6:55 PM 51.1 °F - 25.7 °F 37% 30.05 in 10.0 mi West 8.1 mph - N/A   Clear
7:15 PM 48.9 °F - 25.9 °F 41% 30.06 in 10.0 mi West 8.1 mph - N/A   Clear
7:35 PM 46.9 °F - 26.4 °F 45% 30.07 in 10.0 mi West 8.1 mph - N/A   Clear
7:55 PM 47.5 °F - 26.4 °F 44% 30.09 in 10.0 mi West 6.9 mph - N/A   Clear
8:15 PM 47.3 °F - 27.1 °F 46% 30.09 in 10.0 mi NW 4.6 mph - N/A   Clear
8:35 PM 47.7 °F - 26.6 °F 44% 30.10 in 10.0 mi WNW 4.6 mph - N/A   Clear
8:55 PM 49.3 °F - 27.5 °F 43% 30.13 in 10.0 mi NNE 10.4 mph 17.3 mph N/A   Clear
9:15 PM 50.7 °F - 26.1 °F 38% 30.15 in 10.0 mi NNE 8.1 mph - N/A   Clear
9:35 PM 50.0 °F - 26.6 °F 40% 30.16 in 10.0 mi NNE 9.2 mph - N/A   Clear
9:55 PM 48.0 °F - 27.3 °F 45% 30.19 in 10.0 mi NNE 8.1 mph - N/A   Clear
10:15 PM 50.0 °F - 26.8 °F 41% 30.20 in 10.0 mi NE 11.5 mph - N/A   Clear
10:35 PM 49.1 °F - 27.0 °F 42% 30.22 in 10.0 mi NE 12.7 mph - N/A   Clear
10:55 PM 48.7 °F - 27.1 °F 43% 30.23 in 10.0 mi NE 12.7 mph - N/A   Clear
11:15 PM 47.5 °F - 27.5 °F 46% 30.25 in 10.0 mi NE 8.1 mph - N/A   Clear
11:35 PM 44.8 °F 41.0 °F 27.5 °F 51% 30.27 in 10.0 mi NE 6.9 mph - N/A   Clear
11:55 PM 44.4 °F - 27.5 °F 52% 30.29 in 10.0 mi Calm Calm - N/A   Clear